User: anonymous   Login
Location: Caltech
(34.1382°N, 118.1253°W)
Time: 00:34:52
(UTC-08:00)
Language:

SL-16 R/B - Orbit

View from above orbital plane
View from above orbital plane
View from above satellite
View from above satellite

Ground track
Ground track

The orbit data is extracted from the following two-line orbital elements,

1 31793U 07029B   16341.80191723 -.00000147  00000-0 -51792-4 0  9999
2 31793  70.9775  73.2682 0002255 278.5522 218.3318 14.14376592487516
Epoch (UTC): 06 December 2016 19:14:45
Eccentricity: 0.0002255
inclination: 70.9775°
perigee height: 843 km
apogee height: 846 km
right ascension of ascending node: 73.2682°
argument of perigee: 278.5522°
revolutions per day: 14.14376592
mean anomaly at epoch: 218.3318°
orbit number at epoch: 48751

The dashed part of the orbit path shows where the satellite is in the earth's shadow,  

DLR